[[{"header":{"parameterUnit":"m.s-1","parameterCategory":1,"la1":30.2992,"la2":30.254,"lo1":-89.0895,"lo2":-89.0443,"dy":0.0025,"dx":0.0025,"nx":19,"ny":19,"refTime":"2026-05-14T03:00:00:Z","depth":0,"parameterNumber":2,"parameterNumberName":"U-component_of_WINDS"},"data":[0,0,0,-2.5053,-2.5053,-2.5072,-2.5072,-2.51,-2.51,0,0,0,0,0,0,0,0,0,0,0,-2.5052,-2.5052,-2.5053,-2.5054,-2.5072,-2.5072,-2.51,-2.51,0,0,0,0,0,0,0,0,0,0,0,-2.5052,-2.5052,-2.5052,-2.5054,-2.5072,-2.5072,-2.51,-2.5084,0,0,0,0,0,0,0,0,0,0,-2.5066,-2.5069,-2.5052,-2.5052,-2.5054,-2.5072,-2.5072,-2.5083,-2.5085,-2.5095,0,-2.5104,0,-2.5103,-2.5103,-2.5103,0,0,0,-2.505,-2.5068,-2.5069,-2.5053,-2.5054,-2.5071,-2.5063,-2.5084,-2.5086,-2.5097,-2.5105,-2.5106,-2.5103,-2.5103,-2.5103,-2.5166,-2.5167,0,0,-2.5049,-2.5057,-2.5067,-2.507,-2.5068,-2.5062,-2.5063,-2.5086,-2.5095,-2.5105,-2.5106,-2.5104,-2.5103,-2.5103,-2.5166,-2.5166,0,0,0,-2.5049,-2.5057,-2.5057,-2.5069,-2.5072,-2.5063,-2.5064,-2.5093,-2.5093,-2.5107,-2.5104,-2.5103,-2.5104,-2.5165,-2.5166,-2.5194,0,0,0,-2.5048,-2.5056,-2.5057,-2.5062,-2.5072,-2.5083,-2.5071,-2.5091,-2.5094,-2.5104,-2.5103,-2.5104,-2.5165,-2.5166,-2.5192,-2.5205,0,0,0,-2.5049,-2.5056,-2.506,-2.5062,-2.507,-2.5083,-2.5083,-2.5092,-2.5092,-2.5103,-2.5104,-2.5165,-2.5166,-2.519,-2.5203,-2.5222,0,0,0,-2.5053,-2.5087,-2.5061,-2.5097,-2.507,-2.51,-2.5083,-2.5105,-2.5118,-2.5104,-2.5165,-2.5166,-2.519,-2.5201,-2.5221,-2.5239,-2.5248,0,0,-2.51,-2.5092,-2.5113,-2.5091,-2.5127,-2.5097,-2.5137,-2.5141,-2.5136,-2.5156,-2.5158,-2.5193,-2.5202,-2.5222,-2.5298,-2.5305,0,0,0,-2.513,-2.5145,-2.5153,-2.5165,-2.5169,-2.5172,-2.5169,-2.5171,-2.5187,-2.5148,-2.5206,-2.5211,-2.5222,-2.5231,-2.5237,-2.5244,-2.5171,-2.5171,-2.5171,-2.5207,-2.5197,-2.5229,-2.5221,-2.5232,-2.5228,-2.5236,-2.5237,-2.5225,-2.5238,-2.5244,-2.5291,-2.5301,-2.5306,-2.5314,-2.5254,-2.5254,-2.5254,-2.5255,-2.5273,-2.529,-2.5271,-2.5296,-2.5284,-2.5305,-2.5302,-2.5292,-2.5308,-2.5287,-2.5296,-2.5272,-2.5314,-2.532,-2.5257,-2.5256,-2.5256,-2.5256,-2.5256,-2.532,-2.5326,-2.5327,-2.5341,-2.5353,-2.5343,-2.5359,-2.5349,-2.534,-2.5349,-2.5352,-2.5351,-2.5348,-2.5351,-2.5352,-2.5352,-2.5352,-2.5352,-2.5352,-2.5368,-2.5368,-2.5382,-2.5387,-2.5392,-2.5397,-2.5392,-2.5396,-2.5398,-2.539,-2.5389,-2.5374,-2.5321,-2.5306,-2.5354,-2.5354,-2.5354,-2.5353,-2.5353,-2.5435,-2.5418,-2.544,-2.5445,-2.5448,-2.5459,-2.5446,-2.5455,-2.5457,-2.5465,-2.5448,-2.541,-2.5402,-2.5397,-2.5385,-2.5451,-2.5451,-2.5451,-2.5451,-2.5473,-2.5468,-2.5487,-2.5495,-2.5501,-2.549,-2.5514,-2.551,-2.5503,-2.5503,-2.5492,-2.5476,-2.5472,-2.5466,-2.546,-2.5448,-2.5528,-2.5528,-2.5529,-2.5512,-2.5507,-2.5529,-2.5522,-2.5523,-2.5524,-2.5546,-2.5554,-2.5543,-2.5531,-2.5502,-2.5499,-2.5473,-2.5465,-2.5451,-2.5442,-2.542,0,0]},{"header":{"parameterUnit":"m.s-1","parameterCategory":1,"la1":30.2992,"la2":30.254,"lo1":-89.0895,"lo2":-89.0443,"dy":0.0025,"dx":0.0025,"nx":19,"ny":19,"refTime":"2026-05-14T03:00:00:Z","depth":0,"parameterNumber":3,"parameterNumberName":"V-component_of_WINDS"},"data":[0,0,0,-1.0152,-1.0153,-1.022,-1.022,-1.029,-1.0291,0,0,0,0,0,0,0,0,0,0,0,-1.0124,-1.0124,-1.0152,-1.0153,-1.022,-1.022,-1.029,-1.0291,0,0,0,0,0,0,0,0,0,0,0,-1.0124,-1.0124,-1.0125,-1.0153,-1.022,-1.022,-1.029,-1.0245,0,0,0,0,0,0,0,0,0,0,-1.0182,-1.015,-1.0124,-1.0125,-1.0154,-1.022,-1.022,-1.0243,-1.0247,-1.0254,0,-1.0259,0,-1.0276,-1.0294,-1.0295,0,0,0,-1.0158,-1.0145,-1.0171,-1.0125,-1.0154,-1.022,-1.0191,-1.0246,-1.0251,-1.026,-1.026,-1.0263,-1.0277,-1.0295,-1.0295,-1.0316,-1.0316,0,0,-1.0155,-1.0132,-1.0167,-1.0174,-1.0164,-1.0189,-1.0193,-1.0249,-1.0247,-1.026,-1.0265,-1.0278,-1.0295,-1.0296,-1.0316,-1.0316,0,0,0,-1.0141,-1.0129,-1.0153,-1.0171,-1.0184,-1.0191,-1.0196,-1.0244,-1.0254,-1.0265,-1.0279,-1.0296,-1.0296,-1.0316,-1.0316,-1.0285,0,0,0,-1.0139,-1.0121,-1.0151,-1.0137,-1.0183,-1.0215,-1.0189,-1.025,-1.0257,-1.0279,-1.0296,-1.0297,-1.0317,-1.0316,-1.0287,-1.0274,0,0,0,-1.0122,-1.0119,-1.0126,-1.0136,-1.0164,-1.0215,-1.0228,-1.0252,-1.0265,-1.0295,-1.0297,-1.0317,-1.0316,-1.0288,-1.0276,-1.0271,0,0,0,-1.0098,-1.0098,-1.0125,-1.013,-1.0164,-1.0196,-1.0228,-1.0254,-1.0275,-1.0296,-1.0317,-1.0316,-1.0288,-1.0277,-1.0273,-1.0262,-1.0257,0,0,-1.0084,-1.0095,-1.01,-1.0126,-1.0148,-1.0188,-1.0205,-1.0246,-1.027,-1.0299,-1.03,-1.0286,-1.0276,-1.0272,-1.0235,-1.023,0,0,0,-1.0087,-1.009,-1.0101,-1.0122,-1.0154,-1.018,-1.0222,-1.0237,-1.0263,-1.0281,-1.0285,-1.028,-1.0278,-1.0274,-1.027,-1.0269,-1.0314,-1.0314,-1.0314,-1.0034,-1.0065,-1.0074,-1.0113,-1.0132,-1.0175,-1.0192,-1.022,-1.0245,-1.0246,-1.0254,-1.0228,-1.0223,-1.022,-1.0218,-1.0253,-1.0252,-1.0252,-1.0252,-1.0015,-1.0023,-1.0058,-1.0079,-1.0111,-1.0128,-1.0169,-1.0186,-1.0206,-1.0225,-1.0225,-1.024,-1.0213,-1.0214,-1.025,-1.0251,-1.0251,-1.0251,-1.0251,-0.9982,-0.9991,-1.0011,-1.0043,-1.0063,-1.0103,-1.012,-1.0149,-1.0176,-1.0176,-1.0187,-1.0187,-1.019,-1.018,-1.018,-1.018,-1.0179,-1.0179,-1.0179,-0.9939,-0.9962,-0.9974,-1.0008,-1.0024,-1.0049,-1.0092,-1.0109,-1.0134,-1.0153,-1.0153,-1.0177,-1.0206,-1.0211,-1.0178,-1.0178,-1.0178,-1.0179,-1.0179,-0.9905,-0.9917,-0.9935,-0.9952,-0.9994,-1.0011,-1.0049,-1.0079,-1.0097,-1.0104,-1.0129,-1.0146,-1.0159,-1.0162,-1.0167,-1.0124,-1.0124,-1.0124,-1.0124,-0.9875,-0.9885,-0.991,-0.9934,-0.9961,-0.9996,-1.0013,-1.0046,-1.0082,-1.0094,-1.0105,-1.0114,-1.0117,-1.0128,-1.0132,-1.0136,-1.0087,-1.0087,-1.0087,-0.9855,-0.9869,-0.9879,-0.9915,-0.995,-0.9979,-0.9995,-1.002,-1.0063,-1.0086,-1.0104,-1.0105,-1.0121,-1.0125,-1.0145,-1.0151,-1.016,0,0]}]]